Regional Weather Roundup
Issued by NWS Northern Indiana

Home | Current Version | Previous Version | Graphics & Text | Print | Product List | Glossary On
Versions: 1 2 3 4 5 6 7 8 9 10 11 12 13 14 15 16 17 18 19 20 21 22 23 24 25 26 27 28 29 30 31 32 33 34 35 36 37 38 39 40 41 42 43 44 45 46 47 48 49 50
093
ASUS43 KIWX 030500
RWRIWX

KIWX WEATHER ROUNDUP
NATIONAL WEATHER SERVICE NORTHERN INDIANA
100 AM EDT TUE MAY 03 2016

NOTE: "FAIR" INDICATES FEW OR NO CLOUDS BELOW 12,000 FEET WITH NO
SIGNIFICANT WEATHER AND/OR OBSTRUCTIONS TO VISIBILITY.

* THESE STATIONS ARE NOT UNDER NWS QUALITY CONTROL. THEY ALSO MAY NOT
  REPORT WEATHER SUCH AS PRECIPITATION OR FOG.

INZ001>027-030600-
NORTHERN INDIANA

CITY           SKY/WX    TMP DP  RH WIND       PRES   REMARKS
SOUTH BEND     CLOUDY    48  40  73 CALM      29.99F
GOSHEN         CLOUDY    49  46  90 CALM      29.98F
ANGOLA*        CLOUDY    48  39  71 CALM      29.98S
FORT WAYNE     CLOUDY    50  47  89 N5        29.98F FOG
PERU/GRISSOM   LGT RAIN  50  50 100 N5        29.97S FOG

$$
INZ028>050-030600-
CENTRAL INDIANA

CITY           SKY/WX    TMP DP  RH WIND       PRES   REMARKS
LAFAYETTE      CLOUDY    49  46  90 N5        29.99S
KOKOMO*        CLOUDY    50  46  87 NE7       29.97S
MUNCIE*        CLOUDY    53  49  86 NE5       29.96S
INDIANAPOLIS   LGT RAIN  52  50  93 N7        29.94F FOG

$$
MIZ043>046-050>051-056>058-064>065-071>073-077>080-030600-
SOUTHWEST LOWER MICHIGAN

CITY           SKY/WX    TMP DP  RH WIND       PRES   REMARKS
BATTLE CREEK   CLOUDY    49  44  83 CALM      29.99S
BENTON HARBOR  CLEAR     40  37  89 CALM      29.99F
COLDWATER*     CLOUDY    48  47  95 CALM      29.98S
HILLSDALE*     CLOUDY    48  45  89 CALM      29.97F
HOLLAND        CLEAR     41  39  93 CALM      30.00S
GRAND RAPIDS   CLEAR     44  39  82 CALM      29.99S
KALAMAZOO      CLOUDY    48  43  82 CALM      29.99S
STURGIS*       CLOUDY    47  45  94 CALM      29.98S
THREE RIVERS*  CLOUDY    48  46  91 CALM      29.98F

$$
OHZ001>008-015>018-024>025-030600-
NORTHWEST OHIO

CITY           SKY/WX    TMP DP  RH WIND       PRES   REMARKS
DEFIANCE       CLOUDY    49  47  93 CALM      29.98S FOG
FINDLAY        CLOUDY    50  42  74 CALM      29.96F
TOLEDO EXPRESS CLOUDY    48  45  89 CALM      29.97F
TOLEDO METCALF CLOUDY    49  44  83 CALM      29.98F
LIMA           CLOUDY    48  45  89 NE3       29.96F

$$
AND FOR LAKE MICHIGAN COASTAL AND OPEN LAKE BUOY OBSERVATIONS

STATION/POSITION TEMP    WIND        PRES    VSBY  WAVE
                 AIR SEA DIR/SP/G                  HT/PER
                 (F)     (DEG/KT/KT) (MB)    (MI)  (FT/S)
CALUMET HARBOR    45     330/  2/  3 1015.7F
MICHIGAN CITY     45     250/  2/  2   N/A
BURNS HARBOR      46     340/  4/  6 1016.6F
SAINT JOSEPH      44      10/  1/  2 1015.9F
SOUTH LAKE BUOY   42 41  350/  4/  4 1016.0          1
4 MI NW BRIDGMAN  46 48                N/A           1/ 3

$$
&&




USA.gov is the U.S. government's official web portal to all federal, state and local government web resources and services.